Hourly Weather Roundup
Issued by NWS Central Illinois

Home | Current Version | Previous Version | Text Only | Print | Product List | Glossary On
Versions: 1 2 3 4 5 6 7 8 9 10 11 12 13 14 15 16 17 18 19 20 21 22 23 24 25 26 27 28 29 30 31 32 33 34 35 36 37 38 39 40 41 42 43 44 45 46 47 48 49 50
000
NZUS43 KILX 220310
HWRILX

AREA WEATHER ROUNDUP
NATIONAL WEATHER SERVICE, LINCOLN IL
1000 PM CDT MON JUL 21 2014


CITY           SKY/WX    TMP DP  RH WIND       PRES   REMARKS
BLOOMINGTON    CLEAR     71  65  81 SE8       30.09S
CHAMPAIGN      CLEAR     70  67  90 SE5       30.10R
DECATUR        CLEAR     72  66  81 SE6       30.09R
FLORA          CLEAR     69  66  90 CALM      30.09S FOG
GALESBURG      MOCLDY    74  70  87 SE6       30.04R
JACKSONVILLE   CLEAR     75  69  82 SE6       30.06S
LACON          CLEAR     74  67  80 SE6       30.05R
LAWRENCEVILLE  CLEAR     72  67  84 CALM      30.09R
LITCHFIELD     CLEAR     72  66  81 SE6       30.08R
$$


CITY           SKY/WX    TMP DP  RH WIND       PRES   REMARKS
LINCOLN        CLEAR     73  68  84 SE3       30.04S
MACOMB         CLEAR     71  69  94 SE6       30.05S
MATTOON        CLEAR     72  66  81 CALM      30.09R
MT CARMEL AP   CLEAR     72  70  94 CALM      30.09R
OLNEY-NOBLE AP CLEAR     64  64 100 CALM      30.09R
PARIS          CLEAR     66  65  96 CALM      30.10S FOG
PEORIA         CLEAR     77  68  73 SE6       30.06R
PONTIAC        CLEAR     72  70  94 SE5       30.08S
RANTOUL        CLEAR     71  65  81 SE3       30.11S
ROBINSON       CLEAR     70  69  96 CALM      30.10R FOG
SPRINGFIELD    CLEAR     75  67  76 S7        30.06R
TAYLORVILLE    CLEAR     70  64  83 SE5       30.08R
$$

...REGIONAL REPORTS...


CITY           SKY/WX    TMP DP  RH WIND       PRES   REMARKS
CHICAGO O`HARE CLEAR     76  63  64 S8        30.06S
KANKAKEE       CLEAR     72  67  83 SE3       30.09S
MOLINE         CLEAR     76  69  79 SE6       30.01R
MOUNT VERNON   CLEAR     68  63  83 CALM      30.09S
PITTSFIELD     CLEAR     74  68  81 SE6       30.05S
QUINCY         CLEAR     76  68  76 SE7       30.03R
ROCKFORD       CLEAR     75  68  78 S10       30.06R
$$


CITY           SKY/WX    TMP DP  RH WIND       PRES   REMARKS
BURLINGTON     CLEAR     78  70  76 S9        30.01R HX  80
CEDAR RAPIDS   CLEAR     78  69  73 S9        29.97R HX  80
DES MOINES     CLEAR     85  76  74 S13       29.91R HX  94
KIRKSVILLE     CLEAR     75  70  84 SE7       30.01R
OTTUMWA        CLEAR     79  70  74 S10       29.97R HX  82
ST LOUIS       CLEAR     82  65  56 SE8       30.06R HX  84
$$


CITY           SKY/WX    TMP DP  RH WIND       PRES   REMARKS
TERRE HAUTE    CLEAR     68  65  90 CALM      30.10R
EVANSVILLE     CLEAR     75  68  78 CALM      30.08R
INDIANAPOLIS   MOCLDY    77  63  61 CALM      30.10R
LAFAYETTE      CLEAR     70  66  87 CALM      30.10R
MADISON        PTCLDY    79  68  69 S12       30.01S HX  81
MILWAUKEE      PTCLDY    74  63  68 S7        30.04S
$$





USA.gov is the U.S. government's official web portal to all federal, state and local government web resources and services.